When you browse on this site, cookies collect data to enhance your experience and personalize the content and advertising you see.
Visit our Privacy Policy to learn more. By continuing to use the site, you agree to this use of cookies and data.
  • en France
  • Liste des pays
  • À 7 jours
  • Température de l'eau
  • Carte météo
  • Widgets météo
  • user-avatar
    Se connecter

    Météo par heure à Brisbane

    Ce jour, 24 Août, Samedi

    Heure Température Précipitation Vent Pression Humidité
    00:00 +14°C° 0 mm 2 m/s 766 mmHg 80%
    01:00 +14°C° 0 mm 2 m/s 766 mmHg 81%
    02:00 +13°C° 0 mm 2 m/s 766 mmHg 81%
    03:00 +13°C° 0 mm 2 m/s 766 mmHg 82%
    04:00 +12°C° 0 mm 1 m/s 766 mmHg 82%
    05:00 +12°C° 0 mm 1 m/s 767 mmHg 81%
    06:00 +13°C° 0 mm 1 m/s 767 mmHg 80%
    07:00 +13°C° 0 mm 2 m/s 767 mmHg 79%
    08:00 +15°C° 0 mm 1 m/s 767 mmHg 69%
    09:00 +19°C° 0 mm 1 m/s 767 mmHg 59%
    10:00 +21°C° 0 mm 0 m/s 766 mmHg 48%
    11:00 +23°C° 0 mm 1 m/s 766 mmHg 45%
    12:00 +24°C° 0 mm 2 m/s 765 mmHg 41%
    13:00 +24°C° 0 mm 2 m/s 765 mmHg 38%
    14:00 +24°C° 0 mm 3 m/s 764 mmHg 40%
    15:00 +22°C° 0 mm 3 m/s 764 mmHg 43%
    16:00 +22°C° 0 mm 3 m/s 763 mmHg 44%
    17:00 +20°C° 0 mm 3 m/s 764 mmHg 51%
    18:00 +18°C° 0 mm 3 m/s 764 mmHg 58%
    19:00 +17°C° 0 mm 3 m/s 764 mmHg 65%
    20:00 +16°C° 0 mm 3 m/s 764 mmHg 68%
    21:00 +15°C° 0 mm 2 m/s 764 mmHg 71%
    22:00 +15°C° 0 mm 2 m/s 764 mmHg 74%
    23:00 +14°C° 0 mm 2 m/s 764 mmHg 75%

    Demain, 25 Août, Dimanche

    Heure Température Précipitation Vent Pression Humidité
    00:00 +14°C° 0 mm 1 m/s 764 mmHg 77%
    01:00 +13°C° 0 mm 1 m/s 764 mmHg 78%
    02:00 +13°C° 0 mm 1 m/s 763 mmHg 80%
    03:00 +13°C° 0 mm 1 m/s 763 mmHg 81%
    04:00 +12°C° 0 mm 1 m/s 763 mmHg 83%
    05:00 +13°C° 0 mm 1 m/s 763 mmHg 82%
    06:00 +13°C° 0 mm 1 m/s 764 mmHg 81%
    07:00 +13°C° 0 mm 1 m/s 764 mmHg 80%
    08:00 +16°C° 0 mm 1 m/s 764 mmHg 69%
    09:00 +20°C° 0 mm 1 m/s 763 mmHg 59%
    10:00 +21°C° 0 mm 2 m/s 763 mmHg 49%
    11:00 +24°C° 0 mm 2 m/s 763 mmHg 44%
    12:00 +25°C° 0 mm 2 m/s 762 mmHg 39%
    13:00 +27°C° 0 mm 2 m/s 761 mmHg 34%
    14:00 +26°C° 0 mm 2 m/s 761 mmHg 37%
    15:00 +26°C° 0 mm 3 m/s 760 mmHg 40%
    16:00 +25°C° 0 mm 3 m/s 760 mmHg 43%
    17:00 +22°C° 0 mm 3 m/s 760 mmHg 48%
    18:00 +21°C° 0 mm 3 m/s 761 mmHg 53%
    19:00 +19°C° 0 mm 3 m/s 761 mmHg 59%
    20:00 +19°C° 0 mm 3 m/s 761 mmHg 60%
    21:00 +18°C° 0 mm 3 m/s 761 mmHg 61%
    22:00 +17°C° 0 mm 3 m/s 762 mmHg 63%
    23:00 +17°C° 0 mm 2 m/s 761 mmHg 64%

    Après-demain, 26 Août, Lundi

    Heure Température Précipitation Vent Pression Humidité
    00:00 +16°C° 0 mm 2 m/s 761 mmHg 66%
    01:00 +16°C° 0 mm 2 m/s 761 mmHg 67%
    02:00 +15°C° 0 mm 1 m/s 761 mmHg 68%
    03:00 +15°C° 0 mm 1 m/s 761 mmHg 69%
    04:00 +15°C° 0 mm 1 m/s 761 mmHg 69%
    05:00 +15°C° 0 mm 1 m/s 761 mmHg 67%
    06:00 +16°C° 0 mm 1 m/s 762 mmHg 66%
    07:00 +16°C° 0 mm 1 m/s 762 mmHg 64%
    08:00 +20°C° 0 mm 1 m/s 762 mmHg 56%
    09:00 +23°C° 0 mm 1 m/s 762 mmHg 48%
    10:00 +23°C° 0 mm 0 m/s 762 mmHg 40%
    11:00 +26°C° 0 mm 1 m/s 762 mmHg 35%
    12:00 +28°C° 0 mm 1 m/s 761 mmHg 31%
    13:00 +29°C° 0 mm 2 m/s 761 mmHg 26%
    14:00 +27°C° 0 mm 2 m/s 760 mmHg 32%
    15:00 +26°C° 0 mm 2 m/s 760 mmHg 38%
    16:00 +25°C° 0 mm 3 m/s 760 mmHg 45%
    17:00 +22°C° 0 mm 3 m/s 761 mmHg 54%
    18:00 +20°C° 0 mm 2 m/s 761 mmHg 63%
    19:00 +19°C° 0 mm 2 m/s 762 mmHg 72%
    20:00 +18°C° 0 mm 2 m/s 762 mmHg 76%
    21:00 +19°C° 0 mm 1 m/s 763 mmHg 80%
    22:00 +18°C° 0 mm 1 m/s 763 mmHg 83%
    23:00 +18°C° 0 mm 1 m/s 763 mmHg 84%

    27 Août, Mardi

    Heure Température Précipitation Vent Pression Humidité
    00:00 +16°C° 0 mm 1 m/s 763 mmHg 84%
    01:00 +16°C° 0 mm 1 m/s 763 mmHg 85%
    02:00 +15°C° 0 mm 1 m/s 763 mmHg 85%
    03:00 +15°C° 0 mm 1 m/s 763 mmHg 84%
    04:00 +15°C° 0 mm 1 m/s 763 mmHg 84%
    05:00 +15°C° 0 mm 1 m/s 763 mmHg 83%
    06:00 +15°C° 0 mm 1 m/s 764 mmHg 82%
    07:00 +15°C° 0 mm 1 m/s 764 mmHg 81%
    08:00 +19°C° 0 mm 1 m/s 764 mmHg 69%
    09:00 +22°C° 0 mm 1 m/s 764 mmHg 57%
    10:00 +24°C° 0 mm 1 m/s 764 mmHg 45%
    11:00 +25°C° 0 mm 1 m/s 764 mmHg 41%
    12:00 +26°C° 0 mm 2 m/s 763 mmHg 38%
    13:00 +27°C° 0 mm 2 m/s 762 mmHg 34%
    14:00 +26°C° 0 mm 2 m/s 762 mmHg 39%
    15:00 +24°C° 0 mm 3 m/s 762 mmHg 45%
    16:00 +22°C° 0 mm 3 m/s 762 mmHg 50%
    17:00 +21°C° 0.1 mm 2 m/s 762 mmHg 56%
    18:00 +19°C° 0.1 mm 2 m/s 763 mmHg 63%
    19:00 +18°C° 0.1 mm 2 m/s 763 mmHg 70%
    20:00 +18°C° 0 mm 1 m/s 764 mmHg 72%
    21:00 +18°C° 0 mm 1 m/s 764 mmHg 75%
    22:00 +15°C° 0 mm 0 m/s 764 mmHg 77%
    23:00 +15°C° 0 mm 0 m/s 764 mmHg 78%

    28 Août, Mercredi

    Heure Température Précipitation Vent Pression Humidité
    00:00 +14°C° 0 mm 0 m/s 764 mmHg 79%
    01:00 +15°C° 0 mm 1 m/s 764 mmHg 80%
    02:00 +15°C° 0 mm 1 m/s 763 mmHg 81%
    03:00 +15°C° 0 mm 1 m/s 763 mmHg 81%
    04:00 +14°C° 0 mm 1 m/s 763 mmHg 82%
    05:00 +14°C° 0 mm 1 m/s 764 mmHg 81%
    06:00 +15°C° 0 mm 1 m/s 764 mmHg 79%
    07:00 +15°C° 0 mm 1 m/s 765 mmHg 78%
    08:00 +19°C° 0 mm 1 m/s 764 mmHg 68%
    09:00 +22°C° 0 mm 1 m/s 764 mmHg 58%
    10:00 +23°C° 0 mm 0 m/s 764 mmHg 47%
    11:00 +25°C° 0 mm 1 m/s 763 mmHg 43%
    12:00 +26°C° 0 mm 1 m/s 762 mmHg 40%
    13:00 +27°C° 0 mm 2 m/s 762 mmHg 36%
    14:00 +26°C° 0.1 mm 2 m/s 761 mmHg 42%
    15:00 +24°C° 0.1 mm 3 m/s 761 mmHg 48%
    16:00 +22°C° 0.1 mm 3 m/s 761 mmHg 55%
    17:00 +20°C° 0.9 mm 3 m/s 761 mmHg 63%
    18:00 +19°C° 0.9 mm 2 m/s 762 mmHg 70%
    19:00 +17°C° 0.9 mm 2 m/s 763 mmHg 78%
    20:00 +18°C° 0.4 mm 1 m/s 763 mmHg 80%
    21:00 +18°C° 0.4 mm 1 m/s 763 mmHg 81%
    22:00 +16°C° 0.4 mm 1 m/s 763 mmHg 83%
    23:00 +16°C° 0.1 mm 1 m/s 763 mmHg 83%

    29 Août, Jeudi

    Heure Température Précipitation Vent Pression Humidité
    00:00 +16°C° 0.1 mm 1 m/s 762 mmHg 84%
    01:00 +16°C° 0.1 mm 1 m/s 762 mmHg 84%
    02:00 +15°C° 0 mm 1 m/s 762 mmHg 85%
    03:00 +15°C° 0 mm 1 m/s 762 mmHg 87%
    04:00 +15°C° 0 mm 1 m/s 761 mmHg 88%
    05:00 +15°C° 0 mm 2 m/s 762 mmHg 87%
    06:00 +15°C° 0 mm 2 m/s 762 mmHg 86%
    07:00 +15°C° 0 mm 2 m/s 762 mmHg 86%
    08:00 +17°C° 0 mm 2 m/s 762 mmHg 72%
    09:00 +19°C° 0 mm 2 m/s 762 mmHg 59%
    10:00 +23°C° 0 mm 2 m/s 762 mmHg 46%
    11:00 +24°C° 0 mm 2 m/s 761 mmHg 39%
    12:00 +25°C° 0 mm 2 m/s 760 mmHg 33%
    13:00 +27°C° 0 mm 2 m/s 760 mmHg 27%
    14:00 +26°C° 0 mm 2 m/s 759 mmHg 30%
    15:00 +25°C° 0 mm 2 m/s 759 mmHg 33%
    16:00 +24°C° 0 mm 2 m/s 759 mmHg 36%
    17:00 +23°C° 0 mm 2 m/s 759 mmHg 45%
    18:00 +20°C° 0 mm 2 m/s 760 mmHg 54%
    19:00 +18°C° 0 mm 2 m/s 760 mmHg 63%
    20:00 +18°C° 0.1 mm 2 m/s 761 mmHg 64%
    21:00 +18°C° 0.1 mm 1 m/s 761 mmHg 66%
    22:00 +16°C° 0.1 mm 1 m/s 761 mmHg 67%
    23:00 +16°C° 0 mm 1 m/s 761 mmHg 65%
    Voir plus